Болен

Россия / Хабаровский край     51°33′47″N   135°52′48″E
темп.,
°C
ветер,
м/с
пор.,
м/с
влажн.,
%
обл.,
%
осадки,
мм/ч
давл.,
гПа
погр.,
м
15 мая, сб
сб1501:00+9в1194100 0.0 100913
04:00+8св2296100 0.3 100769
07:00+9в31383100 0.2 1004549
10:00+12юв41166100 0.4 999700
13:00+12ююв61566100 0.0 9951782
16:00+12ю51071100 0.1 9921167
19:00+12зюз611688 0.4 992905
22:00+8юз4107318 0.4 993266
16 мая, вс
вс1601:00+7юз6137715 0.0 992505
04:00+6зюз7137650 0.0 992919
07:00+7зсз4968100 0.0 994999
10:00+7всв316790 0.1 996446
13:00+12з684988 0.0 9951711
16:00+15з783972 0.0 9952182
19:00+13з684835 0.0 997989
22:00+8з49645 0.0 998184
17 мая, пн
пн1701:00+6зюз38775 0.0 998166
04:00+4з22875 0.0 99912
07:00+7юз13772 0.0 999152
10:00+15зюз45480 0.0 997859
13:00+20юз572824 0.0 9962889
16:00+21юз71029100 0.0 9942926
19:00+18зсз6114311 0.0 995785
22:00+12зюз225417 0.0 99812
18 мая, вт
вт1801:00+9юз2262100 0.0 99914
04:00+8юз22635 0.0 99920
07:00+10юз2264100 0.0 999105
10:00+12юз1263100 0.0 999249
13:00+11всв227163 0.1 999555
16:00+12св3474100 0.3 998417
19:00+9ссв3592100 0.4 999378
22:00+7ссв2397100 1.3 1000170
19 мая, ср
ср1901:00+8с1396100 0.2 1001200
04:00+6св119473 0.2 100228
07:00+7юз01843 0.0 1003160
10:00+14з610403 0.0 10031988
13:00+16з811260 0.0 10042615
16:00+17зсз61025100 0.0 10053157
19:00+16зсз2338100 0.0 100675
22:00+10в224886 0.0 100810